When you browse on this site, cookies collect data to enhance your experience and personalize the content and advertising you see.
Visit our Privacy Policy to learn more. By continuing to use the site, you agree to this use of cookies and data.
  • Em Portugal
  • Lista de países
  • Para 7 dias
  • Temperatura da água
  • Mapa do tempo
  • Widgets de tempo
  • user-avatar
    Iniciar Sessão

    Previsão horária em Barisal

    Hoje, 28 Maio, Quinta-feira

    Tempo Temperatura Precipitação Vento Pressão Humidade
    00:00 +32°C° 0 mm 5 m/s 753 mmHg 77%
    01:00 +32°C° 0.2 mm 4 m/s 753 mmHg 77%
    02:00 +31°C° 0.2 mm 3 m/s 752 mmHg 78%
    03:00 +30°C° 0.2 mm 2 m/s 752 mmHg 79%
    04:00 +30°C° 0 mm 4 m/s 752 mmHg 78%
    05:00 +30°C° 0 mm 5 m/s 752 mmHg 78%
    06:00 +30°C° 0 mm 6 m/s 752 mmHg 78%
    07:00 +33°C° 0 mm 6 m/s 752 mmHg 72%
    08:00 +34°C° 0 mm 6 m/s 753 mmHg 65%
    09:00 +36°C° 0 mm 7 m/s 753 mmHg 59%
    10:00 +36°C° 0 mm 7 m/s 753 mmHg 57%
    11:00 +38°C° 0 mm 7 m/s 753 mmHg 55%
    12:00 +38°C° 0 mm 8 m/s 753 mmHg 53%
    13:00 +38°C° 0 mm 8 m/s 752 mmHg 54%
    14:00 +38°C° 0 mm 8 m/s 751 mmHg 54%
    15:00 +38°C° 0 mm 9 m/s 751 mmHg 55%
    16:00 +37°C° 0 mm 8 m/s 751 mmHg 60%
    17:00 +35°C° 0 mm 8 m/s 751 mmHg 64%
    18:00 +34°C° 0 mm 8 m/s 751 mmHg 69%
    19:00 +33°C° 0.8 mm 6 m/s 752 mmHg 71%
    20:00 +32°C° 0.8 mm 4 m/s 752 mmHg 73%
    21:00 +31°C° 0.8 mm 2 m/s 753 mmHg 76%
    22:00 +30°C° 0.1 mm 3 m/s 753 mmHg 77%
    23:00 +30°C° 0.1 mm 3 m/s 754 mmHg 79%

    Amanhã, 29 Maio, Sexta-feira

    Tempo Temperatura Precipitação Vento Pressão Humidade
    00:00 +29°C° 0.1 mm 4 m/s 754 mmHg 81%
    01:00 +29°C° 0.6 mm 5 m/s 754 mmHg 82%
    02:00 +28°C° 0.6 mm 6 m/s 753 mmHg 83%
    03:00 +28°C° 0.6 mm 6 m/s 753 mmHg 84%
    04:00 +28°C° 1.3 mm 6 m/s 753 mmHg 84%
    05:00 +28°C° 1.3 mm 5 m/s 753 mmHg 85%
    06:00 +28°C° 1.3 mm 4 m/s 754 mmHg 86%
    07:00 +30°C° 0 mm 4 m/s 754 mmHg 75%
    08:00 +33°C° 0 mm 3 m/s 754 mmHg 65%
    09:00 +36°C° 0 mm 3 m/s 755 mmHg 55%
    10:00 +36°C° 0.1 mm 3 m/s 754 mmHg 53%
    11:00 +37°C° 0.1 mm 4 m/s 754 mmHg 52%
    12:00 +38°C° 0.1 mm 4 m/s 754 mmHg 50%
    13:00 +37°C° 2.3 mm 5 m/s 754 mmHg 54%
    14:00 +36°C° 2.3 mm 5 m/s 753 mmHg 59%
    15:00 +35°C° 2.3 mm 6 m/s 752 mmHg 63%
    16:00 +34°C° 0.2 mm 5 m/s 752 mmHg 65%
    17:00 +34°C° 0.2 mm 5 m/s 752 mmHg 68%
    18:00 +34°C° 0.2 mm 5 m/s 752 mmHg 70%
    19:00 +33°C° 0.5 mm 5 m/s 753 mmHg 73%
    20:00 +33°C° 0.5 mm 4 m/s 754 mmHg 76%
    21:00 +32°C° 0.5 mm 4 m/s 755 mmHg 79%
    22:00 +32°C° 0.6 mm 4 m/s 754 mmHg 78%
    23:00 +30°C° 0.6 mm 4 m/s 754 mmHg 78%

    Depois de amanhã, 30 Maio, Sábado

    Tempo Temperatura Precipitação Vento Pressão Humidade
    00:00 +30°C° 0.6 mm 5 m/s 753 mmHg 77%
    01:00 +30°C° 0 mm 4 m/s 753 mmHg 79%
    02:00 +30°C° 0 mm 3 m/s 753 mmHg 80%
    03:00 +30°C° 0 mm 3 m/s 753 mmHg 81%
    04:00 +30°C° 0.2 mm 3 m/s 753 mmHg 81%
    05:00 +30°C° 0.2 mm 2 m/s 754 mmHg 81%
    06:00 +30°C° 0.2 mm 2 m/s 754 mmHg 82%
    07:00 +33°C° 0 mm 3 m/s 755 mmHg 74%
    08:00 +34°C° 0 mm 4 m/s 755 mmHg 67%
    09:00 +36°C° 0 mm 4 m/s 755 mmHg 60%
    10:00 +36°C° 0.5 mm 5 m/s 755 mmHg 60%
    11:00 +36°C° 0.5 mm 5 m/s 755 mmHg 59%
    12:00 +36°C° 0.5 mm 5 m/s 755 mmHg 59%
    13:00 +37°C° 1.6 mm 5 m/s 754 mmHg 58%
    14:00 +37°C° 1.6 mm 5 m/s 754 mmHg 57%
    15:00 +37°C° 1.6 mm 5 m/s 753 mmHg 57%
    16:00 +36°C° 0.7 mm 5 m/s 753 mmHg 61%
    17:00 +35°C° 0.7 mm 5 m/s 753 mmHg 65%
    18:00 +35°C° 0.7 mm 5 m/s 752 mmHg 69%
    19:00 +34°C° 0 mm 5 m/s 753 mmHg 73%
    20:00 +33°C° 0 mm 5 m/s 754 mmHg 77%
    21:00 +32°C° 0 mm 5 m/s 754 mmHg 81%
    22:00 +32°C° 0 mm 5 m/s 754 mmHg 81%
    23:00 +32°C° 0 mm 5 m/s 754 mmHg 82%

    31 Maio, Domingo

    Tempo Temperatura Precipitação Vento Pressão Humidade
    00:00 +32°C° 0 mm 5 m/s 755 mmHg 82%
    01:00 +32°C° 0 mm 4 m/s 754 mmHg 82%
    02:00 +32°C° 0 mm 4 m/s 754 mmHg 82%
    03:00 +32°C° 0 mm 4 m/s 754 mmHg 82%
    04:00 +32°C° 0 mm 4 m/s 755 mmHg 82%
    05:00 +32°C° 0 mm 5 m/s 755 mmHg 82%
    06:00 +32°C° 0 mm 5 m/s 755 mmHg 82%
    07:00 +33°C° 0.1 mm 5 m/s 755 mmHg 77%
    08:00 +34°C° 0.1 mm 5 m/s 756 mmHg 73%
    09:00 +34°C° 0.1 mm 6 m/s 756 mmHg 69%
    10:00 +35°C° 0.7 mm 6 m/s 756 mmHg 66%
    11:00 +36°C° 0.7 mm 6 m/s 756 mmHg 63%
    12:00 +38°C° 0.7 mm 6 m/s 755 mmHg 60%
    13:00 +38°C° 0.5 mm 6 m/s 755 mmHg 60%
    14:00 +38°C° 0.5 mm 6 m/s 754 mmHg 60%
    15:00 +36°C° 0.5 mm 6 m/s 754 mmHg 61%
    16:00 +36°C° 0.1 mm 6 m/s 753 mmHg 64%
    17:00 +35°C° 0.1 mm 6 m/s 753 mmHg 66%
    18:00 +34°C° 0.1 mm 6 m/s 753 mmHg 69%
    19:00 +34°C° 0 mm 6 m/s 753 mmHg 72%
    20:00 +33°C° 0 mm 6 m/s 754 mmHg 75%
    21:00 +32°C° 0 mm 6 m/s 754 mmHg 78%
    22:00 +32°C° 0 mm 5 m/s 754 mmHg 79%
    23:00 +32°C° 0 mm 5 m/s 754 mmHg 79%

    1 Junho, Segunda-feira

    Tempo Temperatura Precipitação Vento Pressão Humidade
    00:00 +32°C° 0 mm 5 m/s 754 mmHg 80%
    01:00 +32°C° 0 mm 5 m/s 754 mmHg 80%
    02:00 +32°C° 0 mm 5 m/s 753 mmHg 81%
    03:00 +32°C° 0 mm 5 m/s 753 mmHg 81%
    04:00 +32°C° 0 mm 5 m/s 754 mmHg 81%
    05:00 +32°C° 0 mm 5 m/s 754 mmHg 81%
    06:00 +32°C° 0 mm 4 m/s 754 mmHg 81%
    07:00 +33°C° 0 mm 5 m/s 754 mmHg 76%
    08:00 +34°C° 0 mm 6 m/s 755 mmHg 72%
    09:00 +35°C° 0 mm 6 m/s 755 mmHg 68%
    10:00 +35°C° 0 mm 6 m/s 755 mmHg 66%
    11:00 +36°C° 0 mm 7 m/s 754 mmHg 65%
    12:00 +36°C° 0 mm 7 m/s 754 mmHg 64%
    13:00 +36°C° 0 mm 7 m/s 754 mmHg 64%
    14:00 +36°C° 0 mm 7 m/s 753 mmHg 63%
    15:00 +38°C° 0 mm 7 m/s 753 mmHg 63%
    16:00 +36°C° 0 mm 7 m/s 753 mmHg 66%
    17:00 +35°C° 0 mm 7 m/s 752 mmHg 70%
    18:00 +34°C° 0 mm 6 m/s 752 mmHg 73%
    19:00 +33°C° 0 mm 6 m/s 752 mmHg 74%
    20:00 +33°C° 0 mm 6 m/s 753 mmHg 75%
    21:00 +33°C° 0 mm 6 m/s 753 mmHg 76%
    22:00 +33°C° 0 mm 6 m/s 753 mmHg 76%
    23:00 +33°C° 0 mm 7 m/s 753 mmHg 77%

    2 Junho, Terça-feira

    Tempo Temperatura Precipitação Vento Pressão Humidade
    00:00 +32°C° 0 mm 7 m/s 753 mmHg 77%
    01:00 +32°C° 0 mm 6 m/s 753 mmHg 77%
    02:00 +32°C° 0 mm 6 m/s 752 mmHg 77%
    03:00 +32°C° 0 mm 5 m/s 752 mmHg 77%
    04:00 +32°C° 0 mm 5 m/s 752 mmHg 77%
    05:00 +32°C° 0 mm 5 m/s 753 mmHg 77%
    06:00 +32°C° 0 mm 5 m/s 753 mmHg 77%
    07:00 +33°C° 0 mm 6 m/s 753 mmHg 74%
    08:00 +34°C° 0 mm 7 m/s 753 mmHg 71%
    09:00 +35°C° 0 mm 7 m/s 753 mmHg 68%
    10:00 +36°C° 0 mm 7 m/s 753 mmHg 66%
    11:00 +36°C° 0 mm 7 m/s 753 mmHg 64%
    12:00 +38°C° 0 mm 7 m/s 753 mmHg 61%
    13:00 +38°C° 0 mm 7 m/s 752 mmHg 63%
    14:00 +36°C° 0 mm 7 m/s 752 mmHg 65%
    15:00 +36°C° 0 mm 7 m/s 751 mmHg 66%
    16:00 +35°C° 0 mm 7 m/s 751 mmHg 68%
    17:00 +35°C° 0 mm 7 m/s 750 mmHg 70%
    18:00 +34°C° 0 mm 6 m/s 750 mmHg 72%
    19:00 +33°C° 0 mm 6 m/s 750 mmHg 75%
    20:00 +33°C° 0 mm 5 m/s 751 mmHg 78%
    21:00 +32°C° 0 mm 5 m/s 751 mmHg 81%
    22:00 +32°C° 0 mm 5 m/s 751 mmHg 81%
    23:00 +32°C° 0 mm 5 m/s 751 mmHg 81%
    Mostrar mais